• în România
  • Lista ţărilor
  • Pe 7 zile
  • Temperatura apei
  • Hartă satelitară
  • Meteo pe hartă
  • Widget-uri
  • user-avatar
    Intrare

    Meteo pe oră la Yastrebovka

    Astăzi, 24 Septembrie, Luni

    Timp Temperatura Precipitaţii Vânt Presiune Umiditate
    00:00 +10°C° 0.3 mm 4 m/s 746 mmHg 86%
    01:00 +8°C° 0 mm 4 m/s 746 mmHg 87%
    02:00 +8°C° 0 mm 4 m/s 747 mmHg 88%
    03:00 +9°C° 0 mm 3 m/s 747 mmHg 89%
    04:00 +8°C° 0 mm 3 m/s 747 mmHg 90%
    05:00 +8°C° 0 mm 3 m/s 747 mmHg 91%
    06:00 +8°C° 0 mm 3 m/s 747 mmHg 92%
    07:00 +9°C° 0 mm 3 m/s 747 mmHg 86%
    08:00 +10°C° 0 mm 3 m/s 747 mmHg 79%
    09:00 +12°C° 0 mm 3 m/s 747 mmHg 73%
    10:00 +13°C° 0 mm 3 m/s 747 mmHg 65%
    11:00 +14°C° 0 mm 4 m/s 747 mmHg 58%
    12:00 +17°C° 0 mm 4 m/s 747 mmHg 50%
    13:00 +17°C° 0 mm 4 m/s 747 mmHg 49%
    14:00 +17°C° 0 mm 4 m/s 746 mmHg 48%
    15:00 +16°C° 0 mm 5 m/s 746 mmHg 47%
    16:00 +16°C° 0 mm 5 m/s 745 mmHg 49%
    17:00 +15°C° 0 mm 5 m/s 745 mmHg 51%
    18:00 +15°C° 0 mm 5 m/s 744 mmHg 53%
    19:00 +15°C° 0.3 mm 5 m/s 743 mmHg 54%
    20:00 +14°C° 0.3 mm 5 m/s 743 mmHg 54%
    21:00 +14°C° 0.3 mm 5 m/s 743 mmHg 55%
    22:00 +14°C° 0.4 mm 6 m/s 742 mmHg 57%
    23:00 +13°C° 0.4 mm 6 m/s 741 mmHg 59%

    Mâine, 25 Septembrie, Marţi

    Timp Temperatura Precipitaţii Vânt Presiune Umiditate
    00:00 +12°C° 0.4 mm 7 m/s 740 mmHg 61%
    01:00 +12°C° 0.4 mm 7 m/s 740 mmHg 65%
    02:00 +12°C° 0.4 mm 7 m/s 740 mmHg 69%
    03:00 +11°C° 0.4 mm 7 m/s 739 mmHg 72%
    04:00 +11°C° 0.3 mm 6 m/s 739 mmHg 76%
    05:00 +11°C° 0.3 mm 6 m/s 739 mmHg 80%
    06:00 +10°C° 0.3 mm 6 m/s 739 mmHg 83%
    07:00 +10°C° 0.5 mm 6 m/s 739 mmHg 81%
    08:00 +9°C° 0.5 mm 6 m/s 740 mmHg 79%
    09:00 +9°C° 0.5 mm 6 m/s 740 mmHg 77%
    10:00 +9°C° 0 mm 6 m/s 740 mmHg 74%
    11:00 +10°C° 0 mm 7 m/s 741 mmHg 70%
    12:00 +10°C° 0 mm 7 m/s 741 mmHg 67%
    13:00 +10°C° 0 mm 7 m/s 742 mmHg 65%
    14:00 +11°C° 0 mm 7 m/s 742 mmHg 64%
    15:00 +11°C° 0 mm 7 m/s 742 mmHg 63%
    16:00 +10°C° 0 mm 6 m/s 743 mmHg 65%
    17:00 +10°C° 0 mm 6 m/s 743 mmHg 68%
    18:00 +9°C° 0 mm 5 m/s 744 mmHg 71%
    19:00 +8°C° 0 mm 5 m/s 744 mmHg 73%
    20:00 +8°C° 0 mm 5 m/s 745 mmHg 75%
    21:00 +7°C° 0 mm 5 m/s 746 mmHg 77%
    22:00 +7°C° 0 mm 5 m/s 746 mmHg 78%
    23:00 +6°C° 0 mm 4 m/s 747 mmHg 79%

    Poimâine, 26 Septembrie, Miercuri

    Timp Temperatura Precipitaţii Vânt Presiune Umiditate
    00:00 +5°C° 0 mm 4 m/s 747 mmHg 80%
    01:00 +5°C° 0 mm 4 m/s 748 mmHg 81%
    02:00 +5°C° 0 mm 4 m/s 749 mmHg 82%
    03:00 +5°C° 0 mm 4 m/s 749 mmHg 83%
    04:00 +4°C° 0 mm 4 m/s 750 mmHg 84%
    05:00 +4°C° 0 mm 3 m/s 750 mmHg 86%
    06:00 +4°C° 0 mm 3 m/s 751 mmHg 87%
    07:00 +5°C° 0 mm 4 m/s 751 mmHg 82%
    08:00 +6°C° 0 mm 4 m/s 752 mmHg 77%
    09:00 +7°C° 0 mm 4 m/s 753 mmHg 71%
    10:00 +8°C° 0 mm 4 m/s 753 mmHg 66%
    11:00 +10°C° 0 mm 4 m/s 753 mmHg 61%
    12:00 +11°C° 0 mm 4 m/s 754 mmHg 56%
    13:00 +11°C° 0 mm 4 m/s 754 mmHg 54%
    14:00 +11°C° 0 mm 4 m/s 754 mmHg 52%
    15:00 +11°C° 0 mm 4 m/s 754 mmHg 51%
    16:00 +10°C° 0 mm 3 m/s 754 mmHg 52%
    17:00 +10°C° 0 mm 3 m/s 754 mmHg 54%
    18:00 +9°C° 0 mm 2 m/s 755 mmHg 56%
    19:00 +8°C° 0 mm 2 m/s 755 mmHg 57%
    20:00 +7°C° 0 mm 2 m/s 755 mmHg 59%
    21:00 +6°C° 0 mm 2 m/s 755 mmHg 60%
    22:00 +6°C° 0 mm 2 m/s 755 mmHg 61%
    23:00 +5°C° 0 mm 2 m/s 755 mmHg 62%

    27 Septembrie, Joi

    Timp Temperatura Precipitaţii Vânt Presiune Umiditate
    00:00 +5°C° 0 mm 2 m/s 755 mmHg 64%
    01:00 +4°C° 0 mm 3 m/s 754 mmHg 65%
    02:00 +3°C° 0 mm 3 m/s 754 mmHg 66%
    03:00 +3°C° 0 mm 3 m/s 754 mmHg 67%
    04:00 +3°C° 0 mm 4 m/s 753 mmHg 67%
    05:00 +3°C° 0 mm 4 m/s 753 mmHg 67%
    06:00 +2°C° 0 mm 5 m/s 752 mmHg 66%
    07:00 +3°C° 0 mm 6 m/s 752 mmHg 63%
    08:00 +4°C° 0 mm 7 m/s 751 mmHg 61%
    09:00 +5°C° 0 mm 8 m/s 751 mmHg 58%
    10:00 +6°C° 0.1 mm 8 m/s 750 mmHg 56%
    11:00 +7°C° 0.1 mm 9 m/s 750 mmHg 54%
    12:00 +7°C° 0.1 mm 10 m/s 749 mmHg 52%
    13:00 +7°C° 0.4 mm 9 m/s 749 mmHg 54%
    14:00 +7°C° 0.4 mm 9 m/s 749 mmHg 56%
    15:00 +7°C° 0.4 mm 8 m/s 748 mmHg 58%
    16:00 +7°C° 0.3 mm 8 m/s 748 mmHg 62%
    17:00 +8°C° 0.3 mm 7 m/s 748 mmHg 66%
    18:00 +8°C° 0.3 mm 7 m/s 748 mmHg 70%
    19:00 +8°C° 0.1 mm 7 m/s 748 mmHg 72%
    20:00 +8°C° 0.1 mm 6 m/s 748 mmHg 74%
    21:00 +8°C° 0.1 mm 6 m/s 748 mmHg 77%
    22:00 +9°C° 0 mm 6 m/s 748 mmHg 78%
    23:00 +9°C° 0 mm 6 m/s 748 mmHg 80%

    28 Septembrie, Vineri

    Timp Temperatura Precipitaţii Vânt Presiune Umiditate
    00:00 +9°C° 0 mm 5 m/s 748 mmHg 82%
    01:00 +9°C° 0 mm 5 m/s 748 mmHg 83%
    02:00 +10°C° 0 mm 4 m/s 748 mmHg 85%
    03:00 +8°C° 0 mm 4 m/s 748 mmHg 86%
    04:00 +8°C° 0 mm 4 m/s 748 mmHg 88%
    05:00 +9°C° 0 mm 3 m/s 748 mmHg 89%
    06:00 +9°C° 0 mm 3 m/s 748 mmHg 91%
    07:00 +10°C° 0 mm 4 m/s 748 mmHg 87%
    08:00 +10°C° 0 mm 4 m/s 748 mmHg 83%
    09:00 +10°C° 0 mm 5 m/s 748 mmHg 79%
    10:00 +13°C° 0 mm 6 m/s 747 mmHg 74%
    11:00 +14°C° 0 mm 7 m/s 747 mmHg 69%
    12:00 +16°C° 0 mm 8 m/s 746 mmHg 64%
    13:00 +17°C° 0 mm 8 m/s 746 mmHg 62%
    14:00 +18°C° 0 mm 8 m/s 745 mmHg 60%
    15:00 +18°C° 0 mm 9 m/s 745 mmHg 58%
    16:00 +18°C° 0 mm 8 m/s 745 mmHg 61%
    17:00 +17°C° 0 mm 7 m/s 745 mmHg 63%
    18:00 +17°C° 0 mm 7 m/s 744 mmHg 65%
    19:00 +16°C° 0.1 mm 7 m/s 745 mmHg 67%
    20:00 +16°C° 0.1 mm 7 m/s 745 mmHg 69%
    21:00 +16°C° 0.1 mm 7 m/s 746 mmHg 71%
    22:00 +14°C° 0 mm 6 m/s 746 mmHg 70%
    23:00 +13°C° 0 mm 5 m/s 747 mmHg 70%

    29 Septembrie, Sâmbătă

    Timp Temperatura Precipitaţii Vânt Presiune Umiditate
    00:00 +12°C° 0 mm 4 m/s 747 mmHg 69%
    01:00 +11°C° 0 mm 3 m/s 748 mmHg 71%
    02:00 +10°C° 0 mm 3 m/s 748 mmHg 73%
    03:00 +9°C° 0 mm 2 m/s 749 mmHg 75%
    04:00 +8°C° 0 mm 2 m/s 749 mmHg 77%
    05:00 +7°C° 0 mm 2 m/s 750 mmHg 79%
    06:00 +6°C° 0 mm 2 m/s 750 mmHg 81%
    07:00 +7°C° 0 mm 2 m/s 750 mmHg 74%
    08:00 +9°C° 0 mm 2 m/s 751 mmHg 68%
    09:00 +10°C° 0 mm 2 m/s 751 mmHg 62%
    10:00 +12°C° 0 mm 2 m/s 751 mmHg 57%
    11:00 +12°C° 0 mm 3 m/s 752 mmHg 52%
    12:00 +13°C° 0 mm 3 m/s 752 mmHg 47%
    13:00 +13°C° 0 mm 3 m/s 752 mmHg 47%
    14:00 +13°C° 0 mm 3 m/s 752 mmHg 47%
    15:00 +13°C° 0 mm 4 m/s 752 mmHg 47%
    16:00 +12°C° 0 mm 3 m/s 752 mmHg 51%
    17:00 +11°C° 0 mm 3 m/s 752 mmHg 55%
    18:00 +10°C° 0 mm 3 m/s 753 mmHg 58%
    19:00 +9°C° 0 mm 3 m/s 753 mmHg 60%
    20:00 +8°C° 0 mm 3 m/s 754 mmHg 61%
    21:00 +7°C° 0 mm 3 m/s 755 mmHg 62%
    22:00 +7°C° 0 mm 3 m/s 755 mmHg 63%
    23:00 +5°C° 0 mm 3 m/s 756 mmHg 65%
    Arată mai mult

    3.3.7123123